Date String (YYYY-MM-DD hh:mm:ss) UTC,Instrument flags,absolute air pressure of the measurement (hPa),sample flow rate (lpm),inlet stack bypass flow (lpm),air temperature of the measurement (°C),ambient temperature measured by the external sensor (°C),aerosol sample conditioner tube jacket temperature (°C),OPC LED temperature (°C),internal box temperature (°C),relative humidity of the measurement (%),span deviation,mass concentration of particles derived from Lorenz-Mie calculation of OPC scattering (μg/m³),mass concentration of particles derived from Lorenz-Mie calculation of OPC scattering (μg/m³),mass concentration of particles derived from Lorenz-Mie calculation of OPC scattering (μg/m³)
DateTimeUTC,F1_M11,P_M11,Q1_M11,Q2_M11,T1_M11,T2_M11,T3_M11,T4_M11,T5_M11,U1_M11,ZSPAN_M11,X0_M11,X2_M11,X1_M11
2023-07-17 12:00:00,SystemResetWarning,0833.6,4.99,000.00,029.6,028.3,000.0,038.0,031.1,17.8,0001.5,0009.88,0004.57,0004.24
2023-07-17 12:01:00,SystemResetWarning,0833.7,5.01,000.00,029.6,028.3,000.0,038.0,031.2,17.7,0001.5,0009.99,0004.63,0004.27
2023-07-17 12:02:00,SystemResetWarning,0833.7,5.01,000.00,029.6,028.3,000.0,038.0,031.2,17.6,0002.2,0009.68,0004.65,0004.28
2023-07-17 12:03:00,SystemResetWarning,0833.7,5.01,000.00,029.6,028.4,000.0,038.1,031.2,17.9,0003.0,0009.56,0004.66,0004.29
2023-07-17 12:04:00,SystemResetWarning,0833.7,5.00,000.00,029.7,028.4,000.0,038.1,031.3,17.7,0003.2,0009.25,0004.63,0004.28
2023-07-17 12:05:00,SystemResetWarning,0833.7,4.99,000.00,029.7,028.5,000.0,038.1,031.3,17.9,0002.7,0008.90,0004.66,0004.30
2023-07-17 12:06:00,SystemResetWarning,0833.7,4.99,000.00,029.7,028.5,000.0,038.1,031.3,17.9,0002.6,0009.29,0004.69,0004.32
2023-07-17 12:07:00,SystemResetWarning,0833.7,5.01,000.00,029.7,028.5,000.0,038.1,031.3,17.9,0003.4,0009.40,0004.70,0004.33
2023-07-17 12:08:00,SystemResetWarning,0833.7,5.00,000.00,029.8,028.5,000.0,038.2,031.3,17.5,0003.4,0009.16,0004.69,0004.32
2023-07-17 12:09:00,SystemResetWarning,0833.8,5.01,000.00,029.8,028.6,000.0,038.2,031.4,17.3,0002.8,0008.75,0004.70,0004.33
2023-07-17 12:10:00,SystemResetWarning,0833.7,5.01,000.00,029.8,028.6,000.0,038.2,031.4,17.3,0000.9,0008.98,0004.70,0004.33
2023-07-17 12:11:00,SystemResetWarning,0833.8,5.00,000.00,029.8,028.6,000.0,038.2,031.4,17.4,0000.0,0008.94,0004.71,0004.34
2023-07-17 12:12:00,SystemResetWarning,0833.7,4.98,000.00,029.8,027.5,000.0,038.1,031.3,17.4,0000.0,0008.85,0004.67,0004.32
2023-07-17 12:13:00,SystemResetWarning,0833.7,5.01,000.00,029.8,025.8,000.0,038.0,031.1,17.3,0000.0,0008.88,0004.62,0004.31
2023-07-17 12:14:00,SystemResetWarning,0833.7,5.01,000.00,029.7,025.5,000.0,038.0,030.9,17.5,0000.0,0009.54,0004.60,0004.31
2023-07-17 12:15:00,SystemResetWarning,0833.7,5.00,000.00,029.6,025.8,000.0,038.0,030.7,17.7,0000.0,0009.62,0004.63,0004.32
2023-07-17 12:16:00,SystemResetWarning,0833.7,4.99,000.00,029.5,026.1,000.0,038.0,030.7,17.8,0000.0,0009.98,0004.66,0004.31
2023-07-17 12:17:00,SystemResetWarning,0833.7,5.00,000.00,029.5,026.5,000.0,038.0,030.8,17.9,0000.0,0009.68,0004.66,0004.31
2023-07-17 12:18:00,SystemResetWarning,0833.7,5.00,000.00,029.5,026.8,000.0,038.0,030.8,18.2,0000.0,0009.89,0004.65,0004.31
2023-07-17 12:19:00,SystemResetWarning,0833.7,5.01,000.00,029.5,027.1,000.0,038.0,030.9,17.9,0000.0,0009.91,0004.67,0004.33
2023-07-17 12:20:00,SystemResetWarning,0833.7,4.99,000.00,029.5,027.3,000.0,038.0,030.9,17.7,0000.0,0009.69,0004.67,0004.34
2023-07-17 12:21:00,SystemResetWarning,0833.8,4.99,000.00,029.5,027.5,000.0,038.0,031.0,17.7,0000.0,0009.46,0004.68,0004.35
2023-07-17 12:22:00,SystemResetWarning,0833.8,5.00,000.00,029.5,027.7,000.0,038.0,031.0,17.7,0000.0,0009.51,0004.69,0004.35
2023-07-17 12:23:00,SystemResetWarning,0833.8,5.01,000.00,029.5,027.8,000.0,038.0,031.0,17.5,0000.0,0009.53,0004.70,0004.35
2023-07-17 12:24:00,SystemResetWarning,0833.8,5.01,000.00,029.5,028.0,000.0,038.0,031.1,17.6,0000.0,0009.61,0004.72,0004.36
2023-07-17 12:25:00,SystemResetWarning,0833.8,5.00,000.00,029.6,028.1,000.0,038.0,031.1,17.6,0000.0,0008.94,0004.73,0004.35
2023-07-17 12:26:00,SystemResetWarning,0833.8,4.99,000.00,029.6,028.1,000.0,038.1,031.1,17.7,0000.0,0008.92,0004.71,0004.34
2023-07-17 12:27:00,SystemResetWarning,0833.8,4.99,000.00,029.6,028.2,000.0,038.1,031.2,17.5,0000.0,0008.49,0004.64,0004.34
2023-07-17 12:28:00,SystemResetWarning,0833.8,5.00,000.00,029.6,028.3,000.0,038.1,031.2,17.6,0000.0,0008.27,0004.65,0004.34
2023-07-17 12:29:00,SystemResetWarning,0833.8,5.01,000.00,029.6,028.3,000.0,038.1,031.2,17.4,0000.0,0007.97,0004.69,0004.35
2023-07-17 12:30:00,SystemResetWarning,0833.8,5.01,000.00,029.7,028.4,000.0,038.1,031.3,17.5,0000.0,0008.05,0004.71,0004.34
2023-07-17 12:31:00,SystemResetWarning,0833.8,5.01,000.00,029.7,028.4,000.0,038.1,031.3,17.9,0000.0,0008.01,0004.70,0004.34
2023-07-17 12:32:00,SystemResetWarning,0833.8,5.00,000.00,029.7,028.5,000.0,038.1,031.3,17.5,0000.0,0007.97,0004.70,0004.33
2023-07-17 12:33:00,SystemResetWarning,0833.9,5.01,000.00,029.7,028.5,000.0,038.1,031.3,17.6,0000.0,0007.93,0004.69,0004.33
2023-07-17 12:34:00,SystemResetWarning,0833.9,4.99,000.00,029.8,028.5,000.0,038.2,031.3,18.0,0000.0,0008.69,0004.68,0004.34
2023-07-17 12:35:00,SystemResetWarning,0833.9,4.99,000.00,029.8,028.6,000.0,038.2,031.4,18.2,0000.0,0008.71,0004.67,0004.33
2023-07-17 12:36:00,SystemResetWarning,0833.9,4.99,000.00,029.8,028.6,000.0,038.2,031.4,18.5,0000.0,0008.66,0004.68,0004.33
2023-07-17 12:37:00,SystemResetWarning,0833.9,5.01,000.00,029.8,028.6,000.0,038.2,031.4,18.7,0000.0,0008.62,0004.69,0004.34
2023-07-17 12:38:00,SystemResetWarning,0833.9,5.00,000.00,029.9,027.9,000.0,038.2,031.4,18.9,0000.0,0008.67,0004.72,0004.35
2023-07-17 12:39:00,SystemResetWarning,0833.9,4.99,000.00,029.8,026.2,000.0,038.1,031.2,18.7,0000.0,0008.97,0004.73,0004.35
2023-07-17 12:40:00,SystemResetWarning,0833.9,5.02,000.00,029.7,025.9,000.0,038.0,031.0,19.0,0000.0,0008.83,0004.69,0004.34
2023-07-17 12:41:00,SystemResetWarning,0833.9,5.00,000.00,029.6,026.1,000.0,038.0,030.8,19.3,0000.0,0008.91,0004.66,0004.34
2023-07-17 12:42:00,SystemResetWarning,0833.9,5.00,000.00,029.6,026.5,000.0,038.1,030.9,19.6,0000.0,0009.40,0004.68,0004.35
2023-07-17 12:43:00,SystemResetWarning,0833.8,5.00,000.00,029.6,026.8,000.0,038.1,030.9,19.3,0000.0,0009.37,0004.65,0004.36
2023-07-17 12:44:00,SystemResetWarning,0833.9,5.00,000.00,029.6,027.1,000.0,038.1,030.9,18.8,0000.0,0009.41,0004.67,0004.37
2023-07-17 12:45:00,SystemResetWarning,0833.8,5.00,000.00,029.5,027.3,000.0,038.1,031.0,18.1,0000.0,0009.11,0004.72,0004.38
2023-07-17 12:46:00,SystemResetWarning,0833.9,5.00,000.00,029.6,027.6,000.0,038.1,031.0,18.2,0000.0,0008.73,0004.78,0004.38
2023-07-17 12:47:00,SystemResetWarning,0833.9,4.99,000.00,029.6,027.7,000.0,038.1,031.1,18.5,0000.0,0008.85,0004.79,0004.38
2023-07-17 12:48:00,SystemResetWarning,0833.9,4.99,000.00,029.6,027.9,000.0,038.1,031.1,18.5,0000.0,0008.95,0004.80,0004.39
2023-07-17 12:49:00,SystemResetWarning,0833.9,4.99,000.00,029.6,028.0,000.0,038.1,031.2,18.5,0000.0,0008.94,0004.80,0004.41
2023-07-17 12:50:00,SystemResetWarning,0834.0,5.01,000.00,029.6,028.1,000.0,038.1,031.2,18.4,0000.0,0008.66,0004.84,0004.44
2023-07-17 12:51:00,SystemResetWarning,0834.0,5.01,000.00,029.7,028.2,000.0,038.1,031.2,18.7,0000.0,0008.81,0004.90,0004.46
2023-07-17 12:52:00,SystemResetWarning,0834.0,5.00,000.00,029.7,028.3,000.0,038.1,031.3,18.6,0000.0,0008.86,0004.91,0004.48
2023-07-17 12:53:00,SystemResetWarning,0834.0,5.00,000.00,029.7,028.4,000.0,038.2,031.3,18.3,0000.0,0008.21,0004.91,0004.49
2023-07-17 12:54:00,SystemResetWarning,0834.0,4.99,000.00,029.7,028.4,000.0,038.2,031.3,17.9,0000.0,0008.64,0004.95,0004.50
2023-07-17 12:55:00,SystemResetWarning,0834.0,5.00,000.00,029.7,028.5,000.0,038.2,031.3,17.7,0000.0,0008.89,0004.98,0004.51
2023-07-17 12:56:00,SystemResetWarning,0834.0,5.00,000.00,029.8,028.5,000.0,038.2,031.4,17.8,0000.0,0008.88,0004.97,0004.51
2023-07-17 12:57:00,SystemResetWarning,0834.0,5.00,000.00,029.8,028.2,000.0,038.2,031.4,17.8,0000.0,0008.79,0004.94,0004.52
2023-07-17 12:58:00,SystemResetWarning,0834.0,5.00,000.00,029.8,026.4,000.0,038.1,031.2,18.0,0000.0,0008.70,0004.94,0004.53
2023-07-17 12:59:00,SystemResetWarning,0834.0,5.00,000.00,029.7,025.1,000.0,037.9,030.9,18.2,0000.0,0008.85,0004.95,0004.54
